Regional Weather Roundup
Issued by NWS Burlington, VT

Current Version | Previous Version | Text Only | Print | Product List | Glossary On
Versions: 1 2 3 4 5 6 7 8 9 10 11 12 13 14 15 16 17 18 19 20 21 22 23 24 25 26 27 28 29 30 31 32 33 34 35 36 37 38 39 40 41 42 43 44 45 46 47 48 49 50
000
ASUS41 KBTV 230410
RWRBTV
VERMONT REGIONAL WEATHER ROUNDUP
NATIONAL WEATHER SERVICE BURLINGTON VT
1100 PM EST WED NOV 22 2017

NOTE: "FAIR" INDICATES FEW OR NO CLOUDS BELOW 12,000 FEET WITH NO
SIGNIFICANT WEATHER AND/OR OBSTRUCTIONS TO VISIBILITY.

* THESE REPORTS ARE NOT UNDER NWS QUALITY CONTROL AND/OR DO NOT
  REPORT WEATHER SUCH AS PRECIPITATION AND FOG.

VTZ001>019-230500-
_____VERMONT_____


CITY           SKY/WX    TMP DP  RH WIND       PRES   REMARKS
BURLINGTON     CLOUDY    30  19  63 NW16      30.07S WCI  19
MONTPELIER     CLOUDY    26  22  84 NW15G25   30.02R WCI  14
MORRISVILLE    CLOUDY    26  21  81 N12G18    30.03  WCI  16
ST. JOHNSBURY*   N/A     30  25  81 MISG      29.97
LYNDONVILLE*   CLOUDY    27  24  87 W10G16    29.97R WCI  18
MIDDLEBURY*    FAIR      29  20  69 N8G16     30.04S WCI  21
RUTLAND*       CLOUDY    29  22  75 N12G20    30.01R WCI  19
SPRINGFIELD    CLOUDY    33  22  63 VRB7      29.98R WCI  27
HIGHGATE*      CLOUDY    25  17  71 W7G16     30.09S WCI  17
NEWPORT*       CLOUDY    25  22  89 W10G16    30.00R WCI  15
BENNINGTON     CLOUDY    32  19  58 NW10      30.02R WCI  24
SUTTON*          N/A     25 N/A N/A MISG        N/A

_____LAKE CHAMPLAIN_____


CITY           SKY/WX    TMP DP  RH WIND       PRES   REMARKS
BURTON ISLAND*   N/A     30  23  74 NW23G32     N/A  WCI  17
COLCHESTER RF*   N/A     32  23  69 NW22        N/A  WCI  19

$$

NYZ007-026>031-035-052-083-087-230500-
_____NORTHERN NEW YORK_____


CITY           SKY/WX    TMP DP  RH WIND       PRES   REMARKS
PLATTSBURGH    CLOUDY    28  16  60 NW8G20    30.09S WCI  20
SARANAC LAKE   LGT SNOW  19  16  88 W8        30.02S FOG     WCI   9
MASSENA        CLEAR     23  15  71 NW10      30.17R WCI  12
OGDENSBURG*    FAIR      22  17  79 NW8       30.17S WCI  13
POTSDAM*       CLOUDY    21  19  93 NW6       30.15S WCI  14
WATERTOWN      CLOUDY    26  19  74 N8        30.17S WCI  18
FT DRUM        CLOUDY    23  15  71 N5        30.14S WCI  17
ALBANY         CLOUDY    35  22  58 NW14      30.08R WCI  26
GLENS FALLS    CLEAR     30  19  63 NW9       30.05F WCI  22

$$
NHZ002-005-011-230500-
_____NEW HAMPSHIRE_____


CITY           SKY/WX    TMP DP  RH WIND       PRES   REMARKS
LEBANON        CLOUDY    34  23  64 NW8       29.98R WCI  27
KEENE          CLOUDY    35  23  61 N14G23    29.97R WCI  26
MT WASHINGTON  SNOWSHWR   9   9 100 NW56G67     N/A  VSB 1/16WCI -20
PLYMOUTH       CLOUDY    33  24  69 NW12      29.92S WCI  25
WHITEFIELD     CLOUDY    30  27  88 W9        29.93R WCI  22

$$

_____REGIONAL QUEBEC LOCATIONS_____


CITY           SKY/WX    TMP DP  RH WIND       PRES   REMARKS
MONTREAL       MOCLDY    23  14  68 W12       30.11R WCI  12
QUEBEC CITY    CLEAR     23  14  68 NW12G18   29.94S WCI  12
SHERBROOKE     CLOUDY    27  23  86 NW8G17    29.96R WCI  18

_____REGIONAL ONTARIO LOCATIONS_____


CITY           SKY/WX    TMP DP  RH WIND       PRES   REMARKS
OTTAWA         CLEAR     19  12  73 NW8       30.16R WCI   9

______KEY______
VSB  - VISIBILITY IN MILES
WCI  - WIND CHILL INDEX
HX   - HEAT INDEX
$$
NNNN




USA.gov is the U.S. government's official web portal to all federal, state and local government web resources and services.